Year,Month,Day,Hour,Minute,Value (Times are PST for barometer in hPa)
2011,01,31,00,00,1029.02
2011,01,31,00,01,1029.02
2011,01,31,00,02,1029.02
2011,01,31,00,03,1029.06
2011,01,31,00,04,1029.09
2011,01,31,00,05,1029.09
2011,01,31,00,06,1029.09
2011,01,31,00,07,1029.06
2011,01,31,00,08,1029.06
2011,01,31,00,09,1029.09
2011,01,31,00,10,1029.06
2011,01,31,00,11,1028.99
2011,01,31,00,12,1029.02
2011,01,31,00,13,1029.02
2011,01,31,00,14,1029.02
2011,01,31,00,15,1029.02
2011,01,31,00,16,1029.09
2011,01,31,00,17,1029.09
2011,01,31,00,18,1029.12
2011,01,31,00,19,1029.12
2011,01,31,00,20,1029.16
2011,01,31,00,21,1029.19
2011,01,31,00,22,1029.16
2011,01,31,00,23,1029.19
2011,01,31,00,24,1029.19
2011,01,31,00,25,1029.16
2011,01,31,00,26,1029.19
2011,01,31,00,27,1029.26
2011,01,31,00,28,1029.29
2011,01,31,00,29,1029.29
2011,01,31,00,30,1029.29
2011,01,31,00,31,1029.33
2011,01,31,00,32,1029.29
2011,01,31,00,33,1029.33
2011,01,31,00,34,1029.36
2011,01,31,00,35,1029.33
2011,01,31,00,36,1029.29
2011,01,31,00,37,1029.36
2011,01,31,00,38,1029.39
2011,01,31,00,39,1029.36
2011,01,31,00,40,1029.36
2011,01,31,00,41,1029.33
2011,01,31,00,42,1029.33
2011,01,31,00,43,1029.29
2011,01,31,00,44,1029.29
2011,01,31,00,45,1029.33
2011,01,31,00,46,1029.46
2011,01,31,00,47,1029.50
2011,01,31,00,48,1029.50
2011,01,31,00,49,1029.50
2011,01,31,00,50,1029.50
2011,01,31,00,51,1029.50
2011,01,31,00,52,1029.46
2011,01,31,00,53,1029.43
2011,01,31,00,54,1029.39
2011,01,31,00,55,1029.47
2011,01,31,00,56,1029.56
2011,01,31,00,57,1029.60
2011,01,31,00,58,1029.60
2011,01,31,00,59,1029.60
2011,01,31,01,00,1029.67
2011,01,31,01,01,1029.63
2011,01,31,01,02,1029.67
2011,01,31,01,03,1029.69
2011,01,31,01,04,1029.60
2011,01,31,01,05,1029.63
2011,01,31,01,06,1029.63
2011,01,31,01,07,1029.63
2011,01,31,01,08,1029.67
2011,01,31,01,09,1029.67
2011,01,31,01,10,1029.67
2011,01,31,01,11,1029.70
2011,01,31,01,12,1029.67
2011,01,31,01,13,1029.77
2011,01,31,01,14,1029.73
2011,01,31,01,15,1029.77
2011,01,31,01,16,1029.77
2011,01,31,01,17,1029.77
2011,01,31,01,18,1029.73
2011,01,31,01,19,1029.73
2011,01,31,01,20,1029.70
2011,01,31,01,21,1029.77
2011,01,31,01,22,1029.77
2011,01,31,01,23,1029.73
2011,01,31,01,24,1029.73
2011,01,31,01,25,1029.77
2011,01,31,01,26,1029.80
2011,01,31,01,27,1029.84
2011,01,31,01,28,1029.80
2011,01,31,01,29,1029.84
2011,01,31,01,30,1029.84
2011,01,31,01,31,1029.80
2011,01,31,01,32,1029.77
2011,01,31,01,33,1029.80
2011,01,31,01,34,1029.80
2011,01,31,01,35,1029.84
2011,01,31,01,36,1029.84
2011,01,31,01,37,1029.87
2011,01,31,01,38,1029.84
2011,01,31,01,39,1029.84
2011,01,31,01,40,1029.94
2011,01,31,01,41,1029.94
2011,01,31,01,42,1029.94
2011,01,31,01,43,1030.04
2011,01,31,01,44,1029.97
2011,01,31,01,45,1029.90
2011,01,31,01,46,1030.04
2011,01,31,01,47,1030.00
2011,01,31,01,48,1030.00
2011,01,31,01,49,1029.97
2011,01,31,01,50,1029.97
2011,01,31,01,51,1030.00
2011,01,31,01,52,1030.04
2011,01,31,01,53,1030.04
2011,01,31,01,54,1030.11
2011,01,31,01,55,1030.10
2011,01,31,01,56,1030.00
2011,01,31,01,57,1029.94
2011,01,31,01,58,1029.94
2011,01,31,01,59,1029.87
2011,01,31,02,00,1029.94
2011,01,31,02,01,1029.90
2011,01,31,02,02,1029.95
2011,01,31,02,03,1030.04
2011,01,31,02,04,1030.04
2011,01,31,02,05,1030.00
2011,01,31,02,06,1030.04
2011,01,31,02,07,1030.04
2011,01,31,02,08,1030.04
2011,01,31,02,09,1030.07
2011,01,31,02,10,1030.11
2011,01,31,02,11,1030.04
2011,01,31,02,12,1029.97
2011,01,31,02,13,1030.00
2011,01,31,02,14,1030.04
2011,01,31,02,15,1030.07
2011,01,31,02,16,1030.11
2011,01,31,02,17,1030.17
2011,01,31,02,18,1030.14
2011,01,31,02,19,1030.07
2011,01,31,02,20,1030.07
2011,01,31,02,21,1030.04
2011,01,31,02,22,1030.04
2011,01,31,02,23,1030.07
2011,01,31,02,24,1030.11
2011,01,31,02,25,1030.17
2011,01,31,02,26,1030.21
2011,01,31,02,27,1030.21
2011,01,31,02,28,1030.24
2011,01,31,02,29,1030.28
2011,01,31,02,30,1030.31
2011,01,31,02,31,1030.28
2011,01,31,02,32,1030.41
2011,01,31,02,33,1030.48
2011,01,31,02,34,1030.38
2011,01,31,02,35,1030.38
2011,01,31,02,36,1030.34
2011,01,31,02,37,1030.41
2011,01,31,02,38,1030.41
2011,01,31,02,39,1030.44
2011,01,31,02,40,1030.41
2011,01,31,02,41,1030.44
2011,01,31,02,42,1030.44
2011,01,31,02,43,1030.38
2011,01,31,02,44,1030.38
2011,01,31,02,45,1030.34
2011,01,31,02,46,1030.34
2011,01,31,02,47,1030.28
2011,01,31,02,48,1030.34
2011,01,31,02,49,1030.31
2011,01,31,02,50,1030.25
2011,01,31,02,51,1030.34
2011,01,31,02,52,1030.38
2011,01,31,02,53,1030.38
2011,01,31,02,54,1030.38
2011,01,31,02,55,1030.38
2011,01,31,02,56,1030.37
2011,01,31,02,57,1030.28
2011,01,31,02,58,1030.24
2011,01,31,02,59,1030.21
2011,01,31,03,00,1030.24
2011,01,31,03,01,1030.21
2011,01,31,03,02,1030.24
2011,01,31,03,03,1030.21
2011,01,31,03,04,1030.17
2011,01,31,03,05,1030.17
2011,01,31,03,06,1030.11
2011,01,31,03,07,1030.14
2011,01,31,03,08,1030.24
2011,01,31,03,09,1030.17
2011,01,31,03,10,1030.21
2011,01,31,03,11,1030.21
2011,01,31,03,12,1030.21
2011,01,31,03,13,1030.21
2011,01,31,03,14,1030.24
2011,01,31,03,15,1030.21
2011,01,31,03,16,1030.28
2011,01,31,03,17,1030.24
2011,01,31,03,18,1030.24
2011,01,31,03,19,1030.24
2011,01,31,03,20,1030.34
2011,01,31,03,21,1030.24
2011,01,31,03,22,1030.24
2011,01,31,03,23,1030.31
2011,01,31,03,24,1030.28
2011,01,31,03,25,1030.34
2011,01,31,03,26,1030.31
2011,01,31,03,27,1030.31
2011,01,31,03,28,1030.28
2011,01,31,03,29,1030.31
2011,01,31,03,30,1030.28
2011,01,31,03,31,1030.34
2011,01,31,03,32,1030.31
2011,01,31,03,33,1030.34
2011,01,31,03,34,1030.38
2011,01,31,03,35,1030.34
2011,01,31,03,36,1030.34
2011,01,31,03,37,1030.31
2011,01,31,03,38,1030.31
2011,01,31,03,39,1030.24
2011,01,31,03,40,1030.28
2011,01,31,03,41,1030.28
2011,01,31,03,42,1030.28
2011,01,31,03,43,1030.31
2011,01,31,03,44,1030.31
2011,01,31,03,45,1030.31
2011,01,31,03,46,1030.28
2011,01,31,03,47,1030.28
2011,01,31,03,48,1030.34
2011,01,31,03,49,1030.31
2011,01,31,03,50,1030.28
2011,01,31,03,51,1030.31
2011,01,31,03,52,1030.28
2011,01,31,03,53,1030.28
2011,01,31,03,54,1030.31
2011,01,31,03,55,1030.28
2011,01,31,03,56,1030.29
2011,01,31,03,57,1030.38
2011,01,31,03,58,1030.38
2011,01,31,03,59,1030.41
2011,01,31,04,00,1030.41
2011,01,31,04,01,1030.41
2011,01,31,04,02,1030.41
2011,01,31,04,03,1030.44
2011,01,31,04,04,1030.44
2011,01,31,04,05,1030.44
2011,01,31,04,06,1030.44
2011,01,31,04,07,1030.41
2011,01,31,04,08,1030.38
2011,01,31,04,09,1030.34
2011,01,31,04,10,1030.38
2011,01,31,04,11,1030.34
2011,01,31,04,12,1030.48
2011,01,31,04,13,1030.44
2011,01,31,04,14,1030.52
2011,01,31,04,15,1030.61
2011,01,31,04,16,1030.61
2011,01,31,04,17,1030.66
2011,01,31,04,18,1030.78
2011,01,31,04,19,1030.72
2011,01,31,04,20,1030.75
2011,01,31,04,21,1030.82
2011,01,31,04,22,1030.78
2011,01,31,04,23,1030.82
2011,01,31,04,24,1030.82
2011,01,31,04,25,1030.82
2011,01,31,04,26,1030.85
2011,01,31,04,27,1030.82
2011,01,31,04,28,1030.82
2011,01,31,04,29,1030.85
2011,01,31,04,30,1030.82
2011,01,31,04,31,1030.82
2011,01,31,04,32,1030.82
2011,01,31,04,33,1030.82
2011,01,31,04,34,1030.85
2011,01,31,04,35,1030.78
2011,01,31,04,36,1030.68
2011,01,31,04,37,1030.75
2011,01,31,04,38,1030.72
2011,01,31,04,39,1030.68
2011,01,31,04,40,1030.68
2011,01,31,04,41,1030.68
2011,01,31,04,42,1030.68
2011,01,31,04,43,1030.72
2011,01,31,04,44,1030.75
2011,01,31,04,45,1030.78
2011,01,31,04,46,1030.75
2011,01,31,04,47,1030.72
2011,01,31,04,48,1030.75
2011,01,31,04,49,1030.78
2011,01,31,04,50,1030.82
2011,01,31,04,51,1030.82
2011,01,31,04,52,1030.85
2011,01,31,04,53,1030.82
2011,01,31,04,54,1030.85
2011,01,31,04,55,1030.88
2011,01,31,04,56,1030.85
2011,01,31,04,57,1030.88
2011,01,31,04,58,1030.87
2011,01,31,04,59,1030.79
2011,01,31,05,00,1030.88
2011,01,31,05,01,1030.85
2011,01,31,05,02,1030.85
2011,01,31,05,03,1030.85
2011,01,31,05,04,1030.88
2011,01,31,05,05,1030.92
2011,01,31,05,06,1030.92
2011,01,31,05,07,1030.88
2011,01,31,05,08,1030.88
2011,01,31,05,09,1030.92
2011,01,31,05,10,1030.88
2011,01,31,05,11,1030.85
2011,01,31,05,12,1030.88
2011,01,31,05,13,1030.92
2011,01,31,05,14,1030.88
2011,01,31,05,15,1030.92
2011,01,31,05,16,1030.99
2011,01,31,05,17,1031.05
2011,01,31,05,18,1030.99
2011,01,31,05,19,1031.05
2011,01,31,05,20,1030.99
2011,01,31,05,21,1031.09
2011,01,31,05,22,1031.05
2011,01,31,05,23,1031.05
2011,01,31,05,24,1031.05
2011,01,31,05,25,1031.05
2011,01,31,05,26,1031.05
2011,01,31,05,27,1031.05
2011,01,31,05,28,1031.05
2011,01,31,05,29,1031.05
2011,01,31,05,30,1030.99
2011,01,31,05,31,1031.02
2011,01,31,05,32,1031.02
2011,01,31,05,33,1031.02
2011,01,31,05,34,1031.02
2011,01,31,05,35,1030.99
2011,01,31,05,36,1030.99
2011,01,31,05,37,1030.99
2011,01,31,05,38,1031.16
2011,01,31,05,39,1031.09
2011,01,31,05,40,1031.05
2011,01,31,05,41,1031.02
2011,01,31,05,42,1030.99
2011,01,31,05,43,1030.95
2011,01,31,05,44,1030.95
2011,01,31,05,45,1030.93
2011,01,31,05,46,1031.04
2011,01,31,05,47,1030.95
2011,01,31,05,48,1030.95
2011,01,31,05,49,1031.02
2011,01,31,05,50,1030.99
2011,01,31,05,51,1030.95
2011,01,31,05,52,1031.02
2011,01,31,05,53,1030.99
2011,01,31,05,54,1031.02
2011,01,31,05,55,1031.02
2011,01,31,05,56,1030.99
2011,01,31,05,57,1030.92
2011,01,31,05,58,1030.99
2011,01,31,05,59,1031.04
2011,01,31,06,00,1030.92
2011,01,31,06,01,1031.02
2011,01,31,06,02,1030.95
2011,01,31,06,03,1031.02
2011,01,31,06,04,1031.05
2011,01,31,06,05,1031.05
2011,01,31,06,06,1031.05
2011,01,31,06,07,1031.09
2011,01,31,06,08,1031.16
2011,01,31,06,09,1031.05
2011,01,31,06,10,1031.09
2011,01,31,06,11,1031.12
2011,01,31,06,12,1031.12
2011,01,31,06,13,1031.16
2011,01,31,06,14,1031.09
2011,01,31,06,15,1031.09
2011,01,31,06,16,1031.05
2011,01,31,06,17,1031.09
2011,01,31,06,18,1031.09
2011,01,31,06,19,1031.12
2011,01,31,06,20,1031.12
2011,01,31,06,21,1031.09
2011,01,31,06,22,1031.09
2011,01,31,06,23,1031.12
2011,01,31,06,24,1031.12
2011,01,31,06,25,1031.12
2011,01,31,06,26,1031.12
2011,01,31,06,27,1031.16
2011,01,31,06,28,1031.12
2011,01,31,06,29,1031.09
2011,01,31,06,30,1031.05
2011,01,31,06,31,1031.05
2011,01,31,06,32,1031.05
2011,01,31,06,33,1031.02
2011,01,31,06,34,1031.05
2011,01,31,06,35,1031.02
2011,01,31,06,36,1031.02
2011,01,31,06,37,1031.05
2011,01,31,06,38,1031.05
2011,01,31,06,39,1030.99
2011,01,31,06,40,1031.05
2011,01,31,06,41,1031.02
2011,01,31,06,42,1031.02
2011,01,31,06,43,1031.02
2011,01,31,06,44,1031.02
2011,01,31,06,45,1031.05
2011,01,31,06,46,1031.12
2011,01,31,06,47,1031.05
2011,01,31,06,48,1030.99
2011,01,31,06,49,1031.02
2011,01,31,06,50,1030.99
2011,01,31,06,51,1030.99
2011,01,31,06,52,1031.02
2011,01,31,06,53,1031.09
2011,01,31,06,54,1031.02
2011,01,31,06,55,1030.99
2011,01,31,06,56,1031.02
2011,01,31,06,57,1030.99
2011,01,31,06,58,1030.99
2011,01,31,06,59,1031.02
2011,01,31,07,00,1031.05
2011,01,31,07,01,1031.09
2011,01,31,07,02,1031.09
2011,01,31,07,03,1031.09
2011,01,31,07,04,1031.12
2011,01,31,07,05,1031.09
2011,01,31,07,06,1031.12
2011,01,31,07,07,1031.05
2011,01,31,07,08,1031.09
2011,01,31,07,09,1031.09
2011,01,31,07,10,1031.12
2011,01,31,07,11,1031.16
2011,01,31,07,12,1031.26
2011,01,31,07,13,1031.19
2011,01,31,07,14,1031.16
2011,01,31,07,15,1031.19
2011,01,31,07,16,1031.22
2011,01,31,07,17,1031.19
2011,01,31,07,18,1031.19
2011,01,31,07,19,1031.19
2011,01,31,07,20,1031.22
2011,01,31,07,21,1031.19
2011,01,31,07,22,1031.22
2011,01,31,07,23,1031.19
2011,01,31,07,24,1031.22
2011,01,31,07,25,1031.22
2011,01,31,07,26,1031.26
2011,01,31,07,27,1031.29
2011,01,31,07,28,1031.26
2011,01,31,07,29,1031.29
2011,01,31,07,30,1031.36
2011,01,31,07,31,1031.36
2011,01,31,07,32,1031.43
2011,01,31,07,33,1031.39
2011,01,31,07,34,1031.43
2011,01,31,07,35,1031.43
2011,01,31,07,36,1031.46
2011,01,31,07,37,1031.49
2011,01,31,07,38,1031.46
2011,01,31,07,39,1031.43
2011,01,31,07,40,1031.46
2011,01,31,07,41,1031.49
2011,01,31,07,42,1031.56
2011,01,31,07,43,1031.56
2011,01,31,07,44,1031.53
2011,01,31,07,45,1031.53
2011,01,31,07,46,1031.53
2011,01,31,07,47,1031.46
2011,01,31,07,48,1031.49
2011,01,31,07,49,1031.43
2011,01,31,07,50,1031.46
2011,01,31,07,51,1031.46
2011,01,31,07,52,1031.43
2011,01,31,07,53,1031.43
2011,01,31,07,54,1031.43
2011,01,31,07,55,1031.43
2011,01,31,07,56,1031.43
2011,01,31,07,57,1031.43
2011,01,31,07,58,1031.43
2011,01,31,07,59,1031.43
2011,01,31,08,00,1031.46
2011,01,31,08,01,1031.43
2011,01,31,08,02,1031.43
2011,01,31,08,03,1031.46
2011,01,31,08,04,1031.43
2011,01,31,08,05,1031.43
2011,01,31,08,06,1031.39
2011,01,31,08,07,1031.36
2011,01,31,08,08,1031.43
2011,01,31,08,09,1031.46
2011,01,31,08,10,1031.48
2011,01,31,08,11,1031.39
2011,01,31,08,12,1031.43
2011,01,31,08,13,1031.43
2011,01,31,08,14,1031.43
2011,01,31,08,15,1031.43
2011,01,31,08,16,1031.43
2011,01,31,08,17,1031.46
2011,01,31,08,18,1031.43
2011,01,31,08,19,1031.49
2011,01,31,08,20,1031.46
2011,01,31,08,21,1031.48
2011,01,31,08,22,1031.39
2011,01,31,08,23,1031.46
2011,01,31,08,24,1031.43
2011,01,31,08,25,1031.53
2011,01,31,08,26,1031.60
2011,01,31,08,27,1031.54
2011,01,31,08,28,1031.63
2011,01,31,08,29,1031.66
2011,01,31,08,30,1031.66
2011,01,31,08,31,1031.73
2011,01,31,08,32,1031.70
2011,01,31,08,33,1031.73
2011,01,31,08,34,1031.83
2011,01,31,08,35,1031.80
2011,01,31,08,36,1031.87
2011,01,31,08,37,1031.83
2011,01,31,08,38,1031.90
2011,01,31,08,39,1031.83
2011,01,31,08,40,1031.83
2011,01,31,08,41,1031.80
2011,01,31,08,42,1031.83
2011,01,31,08,43,1031.80
2011,01,31,08,44,1031.83
2011,01,31,08,45,1031.84
2011,01,31,08,46,1031.93
2011,01,31,08,47,1031.90
2011,01,31,08,48,1031.97
2011,01,31,08,49,1031.93
2011,01,31,08,50,1031.93
2011,01,31,08,51,1031.90
2011,01,31,08,52,1031.93
2011,01,31,08,53,1031.90
2011,01,31,08,54,1031.93
2011,01,31,08,55,1031.93
2011,01,31,08,56,1031.97
2011,01,31,08,57,1031.93
2011,01,31,08,58,1032.00
2011,01,31,08,59,1032.00
2011,01,31,09,00,1032.04
2011,01,31,09,01,1032.07
2011,01,31,09,02,1032.10
2011,01,31,09,03,1032.14
2011,01,31,09,04,1032.10
2011,01,31,09,05,1032.14
2011,01,31,09,06,1032.14
2011,01,31,09,07,1032.14
2011,01,31,09,08,1032.14
2011,01,31,09,09,1032.14
2011,01,31,09,10,1032.10
2011,01,31,09,11,1032.07
2011,01,31,09,12,1032.10
2011,01,31,09,13,1032.14
2011,01,31,09,14,1032.10
2011,01,31,09,15,1032.10
2011,01,31,09,16,1032.14
2011,01,31,09,17,1032.08
2011,01,31,09,18,1032.17
2011,01,31,09,19,1032.07
2011,01,31,09,20,1032.04
2011,01,31,09,21,1032.00
2011,01,31,09,22,1032.00
2011,01,31,09,23,1032.00
2011,01,31,09,24,1032.00
2011,01,31,09,25,1032.00
2011,01,31,09,26,1032.04
2011,01,31,09,27,1032.07
2011,01,31,09,28,1032.04
2011,01,31,09,29,1032.07
2011,01,31,09,30,1032.07
2011,01,31,09,31,1032.04
2011,01,31,09,32,1032.10
2011,01,31,09,33,1032.10
2011,01,31,09,34,1032.10
2011,01,31,09,35,1032.10
2011,01,31,09,36,1032.10
2011,01,31,09,37,1032.14
2011,01,31,09,38,1032.17
2011,01,31,09,39,1032.21
2011,01,31,09,40,1032.18
2011,01,31,09,41,1032.34
2011,01,31,09,42,1032.34
2011,01,31,09,43,1032.27
2011,01,31,09,44,1032.27
2011,01,31,09,45,1032.31
2011,01,31,09,46,1032.34
2011,01,31,09,47,1032.34
2011,01,31,09,48,1032.37
2011,01,31,09,49,1032.37
2011,01,31,09,50,1032.37
2011,01,31,09,51,1032.41
2011,01,31,09,52,1032.41
2011,01,31,09,53,1032.44
2011,01,31,09,54,1032.44
2011,01,31,09,55,1032.44
2011,01,31,09,56,1032.51
2011,01,31,09,57,1032.51
2011,01,31,09,58,1032.58
2011,01,31,09,59,1032.58
2011,01,31,10,00,1032.58
2011,01,31,10,01,1032.58
2011,01,31,10,02,1032.65
2011,01,31,10,03,1032.58
2011,01,31,10,04,1032.61
2011,01,31,10,05,1032.58
2011,01,31,10,06,1032.58
2011,01,31,10,07,1032.61
2011,01,31,10,08,1032.58
2011,01,31,10,09,1032.61
2011,01,31,10,10,1032.58
2011,01,31,10,11,1032.58
2011,01,31,10,12,1032.61
2011,01,31,10,13,1032.58
2011,01,31,10,14,1032.58
2011,01,31,10,15,1032.58
2011,01,31,10,16,1032.54
2011,01,31,10,17,1032.54
2011,01,31,10,18,1032.58
2011,01,31,10,19,1032.58
2011,01,31,10,20,1032.61
2011,01,31,10,21,1032.61
2011,01,31,10,22,1032.58
2011,01,31,10,23,1032.65
2011,01,31,10,24,1032.58
2011,01,31,10,25,1032.58
2011,01,31,10,26,1032.58
2011,01,31,10,27,1032.58
2011,01,31,10,28,1032.61
2011,01,31,10,29,1032.61
2011,01,31,10,30,1032.61
2011,01,31,10,31,1032.61
2011,01,31,10,32,1032.61
2011,01,31,15,26,1032.65
2011,01,31,15,27,1032.66
2011,01,31,15,28,1032.65
2011,01,31,15,29,1032.61
2011,01,31,15,30,1032.67
2011,01,31,15,31,1032.64
2011,01,31,15,32,1032.62
2011,01,31,15,33,1032.66
2011,01,31,15,34,1032.65
2011,01,31,15,35,1032.62
2011,01,31,15,36,1032.66
2011,01,31,15,37,1032.69
2011,01,31,15,38,1032.74
2011,01,31,15,39,1032.79
2011,01,31,15,40,1032.78
2011,01,31,15,41,1032.75
2011,01,31,15,42,1032.83
2011,01,31,15,43,1032.85
2011,01,31,15,44,1032.85
2011,01,31,15,45,1032.86
2011,01,31,15,46,1032.89
2011,01,31,15,47,1032.93
2011,01,31,15,48,1032.94
2011,01,31,15,49,1032.91
2011,01,31,15,50,1032.87
2011,01,31,15,51,1032.82
2011,01,31,15,52,1032.77
2011,01,31,15,53,1032.78
2011,01,31,15,54,1032.81
2011,01,31,15,55,1032.78
2011,01,31,15,56,1032.78
2011,01,31,15,57,1032.78
2011,01,31,15,58,1032.79
2011,01,31,15,59,1032.81
2011,01,31,16,00,1032.81
2011,01,31,16,01,1032.86
2011,01,31,16,02,1032.86
2011,01,31,16,03,1032.82
2011,01,31,16,04,1032.81
2011,01,31,16,05,1032.78
2011,01,31,16,06,1032.78
2011,01,31,16,07,1032.81
2011,01,31,16,08,1032.83
2011,01,31,16,09,1032.81
2011,01,31,16,10,1032.89
2011,01,31,16,11,1032.91
2011,01,31,16,12,1032.87
2011,01,31,16,13,1032.86
2011,01,31,16,14,1032.87
2011,01,31,16,15,1032.89
2011,01,31,16,16,1032.93
2011,01,31,16,17,1032.89
2011,01,31,16,18,1032.94
2011,01,31,16,19,1032.98
2011,01,31,16,20,1032.98
2011,01,31,16,21,1032.98
2011,01,31,16,22,1032.99
2011,01,31,16,23,1033.04
2011,01,31,16,24,1033.07
2011,01,31,16,25,1033.04
2011,01,31,16,26,1033.09
2011,01,31,16,27,1033.11
2011,01,31,16,28,1033.16
2011,01,31,16,29,1033.19
2011,01,31,16,30,1033.18
2011,01,31,16,31,1033.17
2011,01,31,16,32,1033.20
2011,01,31,16,33,1033.16
2011,01,31,16,34,1033.19
2011,01,31,16,35,1033.19
2011,01,31,16,36,1033.19
2011,01,31,16,37,1033.19
2011,01,31,16,38,1033.20
2011,01,31,16,39,1033.21
2011,01,31,16,40,1033.20
2011,01,31,16,41,1033.21
2011,01,31,16,42,1033.20
2011,01,31,16,43,1033.22
2011,01,31,16,44,1033.23
2011,01,31,16,45,1033.26
2011,01,31,16,46,1033.26
2011,01,31,16,47,1033.23
2011,01,31,16,48,1033.20
2011,01,31,16,49,1033.21
2011,01,31,16,50,1033.16
2011,01,31,16,51,1033.12
2011,01,31,16,52,1033.12
2011,01,31,16,53,1033.11
2011,01,31,16,54,1033.12
2011,01,31,16,55,1033.20
2011,01,31,16,56,1033.27
2011,01,31,16,57,1033.40
2011,01,31,16,58,1033.47
2011,01,31,16,59,1033.48
2011,01,31,17,00,1033.46
2011,01,31,17,01,1033.46
2011,01,31,17,02,1033.45
2011,01,31,17,03,1033.43
2011,01,31,17,04,1033.45
2011,01,31,17,05,1033.43
2011,01,31,17,06,1033.46
2011,01,31,17,07,1033.46
2011,01,31,17,08,1033.44
2011,01,31,17,09,1033.40
2011,01,31,17,10,1033.43
2011,01,31,17,11,1033.46
2011,01,31,17,12,1033.47
2011,01,31,17,13,1033.46
2011,01,31,17,14,1033.42
2011,01,31,17,15,1033.40
2011,01,31,17,16,1033.37
2011,01,31,17,17,1033.39
2011,01,31,17,18,1033.36
2011,01,31,17,19,1033.33
2011,01,31,17,20,1033.35
2011,01,31,17,21,1033.31
2011,01,31,17,22,1033.30
2011,01,31,17,23,1033.31
2011,01,31,17,24,1033.31
2011,01,31,17,25,1033.38
2011,01,31,17,26,1033.40
2011,01,31,17,27,1033.38
2011,01,31,17,28,1033.40
2011,01,31,17,29,1033.37
2011,01,31,17,30,1033.41
2011,01,31,17,31,1033.51
2011,01,31,17,32,1033.59
2011,01,31,17,33,1033.62
2011,01,31,17,34,1033.67
2011,01,31,17,35,1033.62
2011,01,31,17,36,1033.62
2011,01,31,17,37,1033.65
2011,01,31,17,38,1033.63
2011,01,31,17,39,1033.64
2011,01,31,17,40,1033.64
2011,01,31,17,41,1033.58
2011,01,31,17,42,1033.58
2011,01,31,17,43,1033.64
2011,01,31,17,44,1033.64
2011,01,31,17,45,1033.58
2011,01,31,17,46,1033.59
2011,01,31,17,47,1033.63
2011,01,31,17,48,1033.63
2011,01,31,17,49,1033.64
2011,01,31,17,50,1033.66
2011,01,31,17,51,1033.66
2011,01,31,17,52,1033.66
2011,01,31,17,53,1033.66
2011,01,31,17,54,1033.67
2011,01,31,17,55,1033.69
2011,01,31,17,56,1033.67
2011,01,31,17,57,1033.67
2011,01,31,17,58,1033.65
2011,01,31,17,59,1033.69
2011,01,31,18,00,1033.64
2011,01,31,18,01,1033.59
2011,01,31,18,02,1033.58
2011,01,31,18,03,1033.54
2011,01,31,18,04,1033.49
2011,01,31,18,05,1033.48
2011,01,31,18,06,1033.49
2011,01,31,18,07,1033.52
2011,01,31,18,08,1033.50
2011,01,31,18,09,1033.53
2011,01,31,18,10,1033.53
2011,01,31,18,11,1033.53
2011,01,31,18,12,1033.52
2011,01,31,18,13,1033.50
2011,01,31,18,14,1033.52
2011,01,31,18,15,1033.48
2011,01,31,18,16,1033.48
2011,01,31,18,17,1033.52
2011,01,31,18,18,1033.52
2011,01,31,18,19,1033.56
2011,01,31,18,20,1033.55
2011,01,31,18,21,1033.53
2011,01,31,18,22,1033.52
2011,01,31,18,23,1033.49
2011,01,31,18,24,1033.49
2011,01,31,18,25,1033.49
2011,01,31,18,26,1033.53
2011,01,31,18,27,1033.61
2011,01,31,18,28,1033.64
2011,01,31,18,29,1033.56
2011,01,31,18,30,1033.47
2011,01,31,18,31,1033.46
2011,01,31,18,32,1033.53
2011,01,31,18,33,1033.57
2011,01,31,18,34,1033.63
2011,01,31,18,35,1033.62
2011,01,31,18,36,1033.59
2011,01,31,18,37,1033.58
2011,01,31,18,38,1033.59
2011,01,31,18,39,1033.64
2011,01,31,18,40,1033.66
2011,01,31,18,41,1033.65
2011,01,31,18,42,1033.63
2011,01,31,18,43,1033.64
2011,01,31,18,44,1033.70
2011,01,31,18,45,1033.76
2011,01,31,18,46,1033.79
2011,01,31,18,47,1033.83
2011,01,31,18,48,1033.83
2011,01,31,18,49,1033.85
2011,01,31,18,50,1033.89
2011,01,31,18,51,1033.89
2011,01,31,18,52,1033.94
2011,01,31,18,53,1033.96
2011,01,31,18,54,1033.94
2011,01,31,18,55,1033.98
2011,01,31,18,56,1034.00
2011,01,31,18,57,1033.99
2011,01,31,18,58,1033.97
2011,01,31,18,59,1033.96
2011,01,31,19,00,1033.93
2011,01,31,19,01,1033.93
2011,01,31,19,02,1033.93
2011,01,31,19,03,1033.93
2011,01,31,19,04,1033.92
2011,01,31,19,05,1033.90
2011,01,31,19,06,1033.89
2011,01,31,19,07,1033.88
2011,01,31,19,08,1033.93
2011,01,31,19,09,1033.91
2011,01,31,19,10,1033.87
2011,01,31,19,11,1033.89
2011,01,31,19,12,1033.87
2011,01,31,19,13,1033.90
2011,01,31,19,14,1033.90
2011,01,31,19,15,1033.90
2011,01,31,19,16,1033.90
2011,01,31,19,17,1033.90
2011,01,31,19,18,1033.87
2011,01,31,19,19,1033.84
2011,01,31,19,20,1033.86
2011,01,31,19,21,1033.87
2011,01,31,19,22,1033.93
2011,01,31,19,23,1034.01
2011,01,31,19,24,1034.02
2011,01,31,19,25,1034.03
2011,01,31,19,26,1034.07
2011,01,31,19,27,1034.06
2011,01,31,19,28,1034.03
2011,01,31,19,29,1034.02
2011,01,31,19,30,1034.00
2011,01,31,19,31,1034.01
2011,01,31,19,32,1034.02
2011,01,31,19,33,1034.03
2011,01,31,19,34,1034.06
2011,01,31,19,35,1034.05
2011,01,31,19,36,1034.08
2011,01,31,19,37,1034.10
2011,01,31,19,38,1034.10
2011,01,31,19,39,1034.12
2011,01,31,19,40,1034.19
2011,01,31,19,41,1034.22
2011,01,31,19,42,1034.12
2011,01,31,19,43,1034.01
2011,01,31,19,44,1033.95
2011,01,31,19,45,1033.91
2011,01,31,19,46,1033.93
2011,01,31,19,47,1033.92
2011,01,31,19,48,1033.91
2011,01,31,19,49,1033.94
2011,01,31,19,50,1033.98
2011,01,31,19,51,1033.99
2011,01,31,19,52,1033.98
2011,01,31,19,53,1033.99
2011,01,31,19,54,1033.97
2011,01,31,19,55,1033.96
2011,01,31,19,56,1033.90
2011,01,31,19,57,1033.87
2011,01,31,19,58,1033.90
2011,01,31,19,59,1033.90
2011,01,31,20,00,1033.90
2011,01,31,20,01,1033.90
2011,01,31,20,02,1033.90
2011,01,31,20,03,1033.91
2011,01,31,20,04,1033.92
2011,01,31,20,05,1033.93
2011,01,31,20,06,1033.97
2011,01,31,20,07,1033.97
2011,01,31,20,08,1033.99
2011,01,31,20,09,1034.07
2011,01,31,20,10,1034.15
2011,01,31,20,11,1034.20
2011,01,31,20,12,1034.24
2011,01,31,20,13,1034.25
2011,01,31,20,14,1034.26
2011,01,31,20,15,1034.24
2011,01,31,20,16,1034.24
2011,01,31,20,17,1034.24
2011,01,31,20,18,1034.25
2011,01,31,20,19,1034.27
2011,01,31,20,20,1034.28
2011,01,31,20,21,1034.30
2011,01,31,20,22,1034.27
2011,01,31,20,23,1034.27
2011,01,31,20,24,1034.26
2011,01,31,20,25,1034.24
2011,01,31,20,26,1034.24
2011,01,31,20,27,1034.24
2011,01,31,20,28,1034.25
2011,01,31,20,29,1034.25
2011,01,31,20,30,1034.19
2011,01,31,20,31,1034.19
2011,01,31,20,32,1034.23
2011,01,31,20,33,1034.20
2011,01,31,20,34,1034.20
2011,01,31,20,35,1034.20
2011,01,31,20,36,1034.21
2011,01,31,20,37,1034.23
2011,01,31,20,38,1034.20
2011,01,31,20,39,1034.20
2011,01,31,20,40,1034.20
2011,01,31,20,41,1034.21
2011,01,31,20,42,1034.23
2011,01,31,20,43,1034.20
2011,01,31,20,44,1034.20
2011,01,31,20,45,1034.22
2011,01,31,20,46,1034.25
2011,01,31,20,47,1034.22
2011,01,31,20,48,1034.27
2011,01,31,20,49,1034.27